TimePDT,TemperatureF,Dew PointF,Humidity,Sea Level PressureIn,VisibilityMPH,Wind Direction,Wind SpeedMPH,Gust SpeedMPH,PrecipitationIn,Events,Conditions,WindDirDegrees,DateUTC
12:53 AM,36.0,17.1,46,30.24,10.0,Calm,Calm,-,N/A,,Clear,0,2012-10-07 07:53:00
1:53 AM,39.0,19.0,45,30.24,10.0,ESE,3.5,-,N/A,,Clear,110,2012-10-07 08:53:00
2:53 AM,37.9,19.0,47,30.22,8.0,Calm,Calm,-,N/A,,Clear,0,2012-10-07 09:53:00
3:53 AM,39.0,19.0,45,30.22,7.0,ENE,4.6,-,N/A,,Clear,70,2012-10-07 10:53:00
4:53 AM,39.0,19.0,45,30.22,8.0,ENE,6.9,-,N/A,,Clear,70,2012-10-07 11:53:00
5:53 AM,39.0,19.9,46,30.21,7.0,ENE,8.1,-,N/A,,Clear,60,2012-10-07 12:53:00
6:53 AM,39.9,23.0,51,30.22,7.0,ENE,5.8,-,N/A,,Clear,60,2012-10-07 13:53:00
7:53 AM,43.0,24.1,47,30.23,5.0,East,8.1,-,N/A,,Haze,90,2012-10-07 14:53:00
8:53 AM,48.9,24.1,38,30.23,4.0,East,9.2,-,N/A,,Haze,90,2012-10-07 15:53:00
9:53 AM,53.1,24.1,32,30.22,4.0,ESE,12.7,-,N/A,,Haze,110,2012-10-07 16:53:00
10:53 AM,57.0,23.0,27,30.20,4.0,East,11.5,-,N/A,,Haze,100,2012-10-07 17:53:00
11:53 AM,60.1,23.0,24,30.19,4.0,ESE,6.9,-,N/A,,Haze,110,2012-10-07 18:53:00
12:53 PM,62.1,23.0,22,30.16,4.0,SSE,8.1,-,N/A,,Haze,160,2012-10-07 19:53:00
1:53 PM,64.0,23.0,21,30.13,5.0,SE,3.5,-,N/A,,Haze,130,2012-10-07 20:53:00
2:53 PM,66.0,23.0,20,30.11,6.0,Calm,Calm,-,N/A,,Haze,0,2012-10-07 21:53:00
3:53 PM,66.9,23.0,19,30.08,7.0,Calm,Calm,-,N/A,,Clear,0,2012-10-07 22:53:00
4:53 PM,66.0,23.0,20,30.06,8.0,SW,4.6,-,N/A,,Clear,230,2012-10-07 23:53:00
5:53 PM,62.1,23.0,22,30.04,7.0,WSW,3.5,-,N/A,,Clear,250,2012-10-08 00:53:00
6:53 PM,46.0,19.9,35,30.07,8.0,Calm,Calm,-,N/A,,Clear,0,2012-10-08 01:53:00
7:53 PM,41.0,19.0,41,30.08,7.0,Calm,Calm,-,N/A,,Clear,0,2012-10-08 02:53:00
8:53 PM,39.0,19.9,46,30.06,7.0,Calm,Calm,-,N/A,,Clear,0,2012-10-08 03:53:00
9:53 PM,35.1,17.1,48,30.06,7.0,Calm,Calm,-,N/A,,Clear,0,2012-10-08 04:53:00
10:53 PM,37.0,18.0,46,30.04,7.0,Calm,Calm,-,N/A,,Clear,0,2012-10-08 05:53:00
11:53 PM,36.0,19.0,50,30.04,8.0,Calm,Calm,-,N/A,,Clear,0,2012-10-08 06:53:00